Location: Carson
(33.8314°N, 118.2820°W)
Time: 13:38:55
(UTC+00:00)

Cosmos 1777 Rocket - Pass Details

Date: 23 November 2020
Orbit: 757 x 777 km, 74.0° (Epoch: 21 January)

Event Time Altitude Azimuth Distance (km) Brightness Sun altitude
Rises 12:44:28 0° 203° (SSW) 3,201 7.1 -22.4°
Reaches altitude 10° 12:46:50 10° 206° (SSW) 2,278 6.3 -21.9°
Maximum altitude 12:51:58 66° 288° (WNW) 828 3.8 -20.8°
Drops below altitude 10° 12:57:07 10° 11° (N) 2,290 6.4 -19.8°
Sets 12:59:31 0° 14° (NNE) 3,219 7.3 -19.3°
